www.pogodaiklimat.ru

Погода и климат >> Архив погоды >> Россия >> Приморский край >> Полтавка


ПОГОДА в Полтавке

  • Прогноз погоды в Полтавке
  • Монитор погоды в Полтавке

АРХИВ ПОГОДЫ в Полтавке

Время (UTC), дата Ветер
(напр.,м/с)
 
Видим.   Явления Облачность Т
(С)
Тd
(С)
f
(%)
Тe
(С)
Тes
(С)
Комфортность P
(гПа)
Po
(гПа)
Тmin
(С)
Tmax
(С)
R
(мм)
R24
(мм)
S
(см)
15 9.07 В 2 50 км 4 балла +15.2 +14.1 93 +15 +15 1012.9 1000.0
18 9.07 штиль 0 н/о н/о +12.5 +11.9 96 +12 1014.4 1001.3
21 9.07 штиль 0 50 км ясно +13.2 +12.4 95 +13 +14 1014.2 1000.9 +11.0
00 10.07 ЮЗ 1 н/о н/о +20.5 +13.9 66 +24 +24 комфорт 1014.2 1001.3
03 10.07 В 3 50 км 5 баллов +23.1 +15.9 64 +28 +35 душно 1015.3 1002.7
06 10.07 В 4 н/о н/о +25.0 +10.1 39 +26 1013.8 1001.3
09 10.07 ЮВ 3 50 км 3/1 1000 м
[Sc Ci]
+24.0 +11.3 45 +25 +27 комфорт 1012.5 1000.0 +25.1
12 10.07 ЮВ 3 н/о н/о +16.8 +12.3 75 +17 1015.6 1002.7
15 10.07 штиль 0 50 км 10 баллов +12.5 +11.2 92 +12 +12 1015.8 1002.7
18 10.07 ЮВ 2 н/о н/о +10.7 +10.1 96 +9 1014.4 1001.3
21 10.07 штиль 0 50 км 9/3 1000 м
[Sc Ac trans Ci fib]
+12.0 +11.4 96 +11 +12 1013.2 999.9 +10.7
00 11.07 В 2 н/о н/о +16.8 +13.1 79 +17 +17 1012.8 999.7
03 11.07 В 2 50 км 9/5 600 м
[Cu Sc Ac trans]
+18.7 +14.0 74 +20 +22 1011.4 998.7
06 11.07 В 2 н/о н/о +20.9 +15.0 69 +25 1009.9 997.3
09 11.07 ЮВ 3 50 км 10/3 600 м
[Sc Ac trans Ci fib]
+20.6 +14.3 67 +24 +24 комфорт 1008.6 996.0 +22.1
12 11.07 ЮВ 1 н/о н/о +17.2 +13.1 77 +18 1008.8 996.0
15 11.07 штиль 0 50 км 9/5 600 м
[Cb cap Ac trans]
+16.8 +13.3 80 +17 +17 1007.5 994.7
18 11.07 штиль 0 н/о н/о +15.8 +13.8 88 +16 1006.1 993.3
21 11.07 штиль 0 20 км 10/4 600 м
[Cb cap Ac As]
+15.5 +14.6 94 +15 +15 1005.0 992.0 +15.1
00 12.07 штиль 0 н/о н/о +17.7 +14.8 83 +18 +18 1004.6 991.7
03 12.07 штиль 0 50 км 9/3 600 м
[Cu med, cong Ac trans]
+22.8 +15.6 64 +27 +30 душно 1004.5 992.0
06 12.07 В 2 н/о н/о +24.7 +16.1 59 +28 +28 душно 1001.6 989.3
09 12.07 СВ 1 50 км 10/3 600 м
[Sc Ac trans Ci sp]
+23.2 +15.8 63 +28 +28 душно 1001.7 989.3 +24.9
12 12.07 штиль 0 н/о н/о +19.2 +17.2 88 +21 +21 комфорт 1003.3 990.7
15 12.07 штиль 0 50 км 8/3 600 м
[Sc Ac trans Ci fib]
+15.3 +14.7 96 +15 +15 1003.5 990.7
18 12.07 штиль 0 н/о н/о +16.4 +15.8 96 +16 +16 1003.4 990.7
21 12.07 штиль 0 50 км 9/3 1000 м
[Sc Ac trans]
+15.7 +15.2 97 +15 +16 1003.7 990.7 +14.8
00 13.07 штиль 0 н/о н/о +18.9 +17.0 89 +20 +20 1004.2 991.3
03 13.07 С 2 50 км 9/6 600 м
[Cb cap Ac trans]
+21.3 +16.5 74 +25 +27 комфорт 1004.5 992.0
06 13.07 штиль 0 н/о н/о +19.1 +17.4 90 +21 +21 комфорт 1004.6 992.0
09 13.07 СВ 1 50 км 10/8 600 м
[Cb cap Ac As]
+21.2 +16.7 75 +25 +25 комфорт 1002.5 989.8 +21.6
12 13.07 штиль 0 н/о н/о +18.8 +16.9 89 +20 +20 1004.1 991.2
18 13.07 штиль 0 н/о н/о +17.3 +17.0 98 +17 +17 1004.7 992.0
21 13.07 штиль 0 2000 м дымка 10/10 600 м
[St]
+17.6 +17.1 97 +18 +18 1004.7 991.8 +17.2 3
00 14.07 штиль 0 н/о н/о +19.2 +17.8 92 +21 +21 комфорт 1005.2 992.3
03 14.07 В 2 50 км 9 баллов +21.4 +18.4 83 +26 +28 душно 1005.8 993.3
09 14.07 штиль 0 50 км 6/4 600 м
[Cb cap Ac lent]
+22.7 +18.0 75 +28 +29 душно 1004.4 992.0 +24.1
12 14.07 штиль 0 н/о н/о +20.2 +18.9 92 +23 1005.9 993.3
15 14.07 штиль 0 50 км 10 баллов +19.0 +18.2 95 +21 +21 комфорт 1007.3 994.7
18 14.07 штиль 0 н/о н/о +18.2 +17.7 97 +19 1007.4 994.7
21 14.07 ЮВ 1 500 м туман ?/? +18.1 +17.6 97 +19 +19 1008.4 995.5 +18.1
00 15.07 В 1 н/о н/о +19.0 +17.2 89 +22 +22 комфорт 1009.7 996.8 +17.6
03 15.07 В 3 50 км 9 баллов +23.3 +18.2 73 +29 +31 душно 1009.8 997.3
06 15.07 В 3 н/о н/о +24.3 +17.8 67 +28 1009.8 997.3
09 15.07 ЮВ 3 50 км 10/3 600 м
[Sc Ac trans Ci fib]
+22.6 +17.1 71 +27 +27 душно 1009.8 997.3 +24.9
12 15.07 Ю 1 н/о н/о +18.8 +16.4 86 +21 1012.7 1000.0
15 15.07 ЮВ 2 50 км 9 баллов +18.0 +16.2 89 +19 +19 1012.8 1000.0
18 15.07 ЮВ 2 н/о н/о +18.0 +15.6 86 +19 1014.1 1001.3
21 15.07 ЮВ 1 50 км 9/6 600 м
[Sc Ac trans]
+17.2 +15.9 92 +18 +18 1013.6 1000.5 +17.2
00 16.07 ЮВ 3 н/о н/о +19.6 +16.3 81 +22 +22 комфорт 1013.5 1000.6
03 16.07 Ю 3 50 км 9 баллов +23.7 +16.0 62 +27 +29 жарко 1013.8 1001.3
06 16.07 ЮВ 3 н/о н/о +25.6 +17.0 59 +29 1011.1 998.7
09 16.07 Ю 4 50 км 9/3 600 м
[Sc Ac trans]
+22.3 +16.1 68 +26 +27 жарко 1011.3 998.7 +25.7
12 16.07 В 2 н/о н/о +17.6 +15.2 86 +18 1012.8 1000.0

 

Местоположение метеостанции Полтавка (Приморский край, Россия): широта 44.03 долгота 131.30 высота над уровнем моря 109 м.

В архиве по умолчанию представлена погода в Полтавке за последнюю неделю. Архивные данные за месяц целиком и за предыдущие месяцы, начиная с января 2011 года, Вы можете получить, выбрав интересующий диапазон дат из раскрывающегося списка и нажав кнопку "Ввод!".


*Определитесь, кто Вы:
робот инопланетянин человек

Внимание! Время в таблицах - всемирное. Для получения местного времени необходимо прибавить поправку, которая равна 10 ч.

Смотрите также архив погоды в соседних городах и на ближайших метеорологических станциях:

Погода в Суйфэньхэ (Хэйлунцзян, Китай) (41 км)
Погода в Пограничном (Приморский край, Россия) (41 км)
Погода в Тимирязевском (Приморский край, Россия) (51 км)
Погода в Хороле (Приморский край, Россия) (71 км)
Погода в Барабаше (Приморский край, Россия) (93 км)
Погода в Астраханке (Приморский край, Россия) (95 км)
Погода в Владивостоке (Приморский край, Россия) (112 км)
Погода в Многоудобном (Приморский край, Россия) (113 км)
Погода на Мысе Назимова (Приморский край, Россия) (119 км)
Погода в Анучино (Приморский край, Россия) (136 км)

Пояснения к столбцам:

Ветер - указаны скорость ветра в м/с - средняя за 10 мин, порывы в срок и между сроками (в фигурных скобках) и направление, откуда дует ветер: С - северный, СВ - северо-восточный, В - восточный, ЮВ - юго-восточный, Ю - южный, ЮЗ - юго-западный, З - западный, СЗ - северо-западный.
Видимость - горизонтальная дальность видимости в метрах или километрах. При видимости от 1 до 10 км при отсутствии осадков обычно наблюдается дымка, при ухудшении видимости до 1 км и менее - туман. В сухую погоду видимость может ухудшаться дымом, пылью или мглою.
Явления - указаны атмосферные явления, наблюдавшиеся в срок или в последний час перед сроком; фигурными скобками обозначены явления, наблюдавшиеся между сроками (за 1-3 часа до срока); квадратными скобками обозначены град или гололедные отложения с указанием их диаметра в мм.
Облачность - указаны через наклонную черту общая и нижняя облачность в баллах и высота нижней границы облаков в метрах; квадратными скобками обозначены формы облаков: Ci - перистые, Cs - перисто-слоистые, Cc - перисто-кучевые, Ac - высококучевые, As - высокослоистые, Sc - слоисто-кучевые, Ns - слоисто-дождевые, Cu - кучевые, Cb - кучево-дождевые. Подробнее классификацию облаков см. в Атласе облаков (PDF).
T - Температура воздуха - температура, измеренная на высоте 2 м над землей.
Td - Температура точки росы - температура, при понижении до которой содержащийся в воздухе водяной пар достигнет насыщения.
f - Относительная влажность воздуха - влажноcть воздуха, измеренная на высоте 2 м над землей.
Te - Эффективная температура - температура, которую ощущает одетый по сезону человек в тени. Характеристика душности погоды. При расчете учитывается влияние влажности воздуха и скорости ветра на теплоощущения человека.
Tes - Эффективная температура на солнце - температура, которую ощущает человек, с поправкой на солнечный нагрев. Характеристика знойности погоды. Зависит от высоты солнца над горизонтом, облачности и скорости ветра. Ночью, в пасмурную погоду, а также при ветре 12 м/с и более поправка равна нулю.
P - Атмосферное давление - приведенное к уровню моря атмосферное давление.
Po - Атмосферное давление - измеренное на уровне метеостанции атмосферное давление.
Tmin - Минимальная температура - минимум температуры воздуха на высоте 2 м над землей.
Tmax - Максимальная температура - максимум температуры воздуха на высоте 2 м над землей.
R - Количество осадков - Количество выпавших осадков за период времени, мм. При наведении курсора мыши на число - период времени, за который выпало указанное количество осадков.
R24 - Количество осадков - Количество выпавших осадков за 24 часа, мм.
S - Снежный покров - Высота снежного покрова, см. При наведении курсора мыши на число - состояние снежного покрова и степень покрытия местности в баллах.